Weather in Kleve

Germany     51°47′23″N   6°08′29″E
temp.,
°C
wind,
m/s
gust,
m/s
humid.,
%
clouds,
%
prec.,
mm/h
press.,
hPa
HPBL,
m
28 november, sun
sun2801:00+3sw2285100 0.0 99565
04:00+3wnw2287100 0.0 99549
07:00+2nw2394100 0.0 996103
10:00+3n2387100 0.0 998469
13:00+4nw4479100 0.0 998769
16:00+3ne41090100 0.4 998392
19:00+2w2391100 0.4 100059
22:000nw34765 0.0 100159
29 november, mon
mon2901:000wnw4777100 0.0 100296
04:000wnw498486 0.1 1003172
07:000w488712 0.2 1005134
10:00+2w488130 0.0 1006274
13:00+5w128749 0.0 1008247
16:00+3wnw118935 0.0 101010
19:00+2wsw2290100 0.0 101214
22:00+2sw3592100 0.0 101393
30 november, tue
tue3001:00+3wsw41091100 0.0 1012232
04:00+4sw81580100 0.0 1011795
07:00+4sw102083100 0.3 1008800
10:00+6wsw91696100 1.6 1007655
13:00+9w81595100 4.8 1006905
16:00+9w61295100 0.5 1007642
19:00+9wsw71496100 1.6 1006737
22:00+9wsw91693100 1.3 1004930
1 december, wed
wed101:00+11wsw101982100 1.3 10021452
04:00+10sw122087100 0.2 9981398
07:00+9sw132385100 0.3 9951437
10:00+9wsw132286100 0.4 9931671
13:00+9w9137980 0.8 9951106
16:00+8w71381100 1.1 995779
19:00+7w5108298 1.6 996502
22:00+6wnw4790100 0.9 998461
2 december, thu
thu201:00+5w3790100 1.3 998244
04:00+4wnw3790100 0.1 999298
07:00+4wnw3790100 0.4 1000285
10:00+4w48785 0.1 1001260
13:00+6wnw687099 0.2 1001639
16:00+2nw3698100 3.3 1003235
19:00+1sw479688 3.8 1003164
22:00+1wsw41088100 0.3 1003220